When you browse on this site, cookies collect data to enhance your experience and personalize the content and advertising you see.
Visit our Privacy Policy to learn more. By continuing to use the site, you agree to this use of cookies and data.
  • Em Portugal
  • Lista de países
  • Para 7 dias
  • Temperatura da água
  • Mapa do tempo
  • Widgets de tempo
  • user-avatar
    Iniciar Sessão

    Previsão horária em Luanda

    Hoje, 23 Setembro, Segunda-feira

    Tempo Temperatura Precipitação Vento Pressão Humidade
    00:00 +24°C° 0 mm 3 m/s 754 mmHg 81%
    01:00 +24°C° 0 mm 3 m/s 754 mmHg 80%
    02:00 +24°C° 0 mm 3 m/s 754 mmHg 81%
    03:00 +24°C° 0 mm 3 m/s 753 mmHg 83%
    04:00 +23°C° 0 mm 2 m/s 753 mmHg 84%
    05:00 +24°C° 0 mm 2 m/s 754 mmHg 82%
    06:00 +24°C° 0 mm 2 m/s 754 mmHg 81%
    07:00 +24°C° 0 mm 2 m/s 755 mmHg 80%
    08:00 +26°C° 0 mm 2 m/s 755 mmHg 71%
    09:00 +28°C° 0 mm 2 m/s 755 mmHg 63%
    10:00 +30°C° 0 mm 2 m/s 754 mmHg 55%
    11:00 +30°C° 0 mm 3 m/s 754 mmHg 54%
    12:00 +32°C° 0 mm 4 m/s 753 mmHg 53%
    13:00 +32°C° 0 mm 5 m/s 752 mmHg 51%
    14:00 +30°C° 0 mm 5 m/s 752 mmHg 54%
    15:00 +30°C° 0 mm 5 m/s 751 mmHg 56%
    16:00 +29°C° 0 mm 6 m/s 751 mmHg 59%
    17:00 +28°C° 0 mm 5 m/s 752 mmHg 65%
    18:00 +26°C° 0 mm 5 m/s 753 mmHg 71%
    19:00 +25°C° 0 mm 5 m/s 753 mmHg 76%
    20:00 +25°C° 0 mm 4 m/s 754 mmHg 77%
    21:00 +25°C° 0 mm 3 m/s 754 mmHg 78%
    22:00 +25°C° 0 mm 2 m/s 755 mmHg 79%
    23:00 +24°C° 0 mm 3 m/s 755 mmHg 79%

    Amanhã, 24 Setembro, Terça-feira

    Tempo Temperatura Precipitação Vento Pressão Humidade
    00:00 +24°C° 0 mm 3 m/s 754 mmHg 79%
    01:00 +24°C° 0 mm 3 m/s 754 mmHg 79%
    02:00 +24°C° 0 mm 3 m/s 754 mmHg 80%
    03:00 +24°C° 0 mm 2 m/s 754 mmHg 80%
    04:00 +24°C° 0 mm 2 m/s 754 mmHg 80%
    05:00 +24°C° 0.1 mm 2 m/s 754 mmHg 79%
    06:00 +24°C° 0.1 mm 2 m/s 755 mmHg 78%
    07:00 +24°C° 0.1 mm 1 m/s 755 mmHg 78%
    08:00 +26°C° 0.4 mm 1 m/s 755 mmHg 71%
    09:00 +27°C° 0.4 mm 1 m/s 755 mmHg 65%
    10:00 +29°C° 0.4 mm 1 m/s 755 mmHg 58%
    11:00 +29°C° 0.9 mm 2 m/s 754 mmHg 57%
    12:00 +29°C° 0.9 mm 2 m/s 754 mmHg 57%
    13:00 +30°C° 0.9 mm 3 m/s 753 mmHg 56%
    14:00 +29°C° 0.1 mm 4 m/s 752 mmHg 58%
    15:00 +29°C° 0.1 mm 4 m/s 752 mmHg 60%
    16:00 +28°C° 0.1 mm 5 m/s 751 mmHg 62%
    17:00 +27°C° 0 mm 5 m/s 752 mmHg 67%
    18:00 +26°C° 0 mm 4 m/s 753 mmHg 72%
    19:00 +25°C° 0 mm 4 m/s 754 mmHg 77%
    20:00 +25°C° 0 mm 4 m/s 754 mmHg 78%
    21:00 +25°C° 0 mm 4 m/s 754 mmHg 79%
    22:00 +25°C° 0 mm 4 m/s 754 mmHg 80%
    23:00 +25°C° 0.2 mm 4 m/s 754 mmHg 81%

    Depois de amanhã, 25 Setembro, Quarta-feira

    Tempo Temperatura Precipitação Vento Pressão Humidade
    00:00 +25°C° 0.2 mm 3 m/s 754 mmHg 81%
    01:00 +25°C° 0.2 mm 3 m/s 754 mmHg 81%
    02:00 +25°C° 0.3 mm 3 m/s 754 mmHg 81%
    03:00 +25°C° 0.3 mm 3 m/s 754 mmHg 81%
    04:00 +25°C° 0.3 mm 3 m/s 754 mmHg 81%
    05:00 +25°C° 0 mm 3 m/s 755 mmHg 80%
    06:00 +25°C° 0 mm 3 m/s 755 mmHg 79%
    07:00 +25°C° 0 mm 3 m/s 755 mmHg 77%
    08:00 +26°C° 0 mm 3 m/s 755 mmHg 71%
    09:00 +28°C° 0 mm 3 m/s 755 mmHg 65%
    10:00 +29°C° 0 mm 3 m/s 755 mmHg 59%
    11:00 +30°C° 0 mm 3 m/s 755 mmHg 57%
    12:00 +30°C° 0 mm 3 m/s 754 mmHg 55%
    13:00 +32°C° 0 mm 4 m/s 754 mmHg 53%
    14:00 +30°C° 0 mm 4 m/s 753 mmHg 56%
    15:00 +30°C° 0 mm 5 m/s 752 mmHg 59%
    16:00 +29°C° 0 mm 5 m/s 752 mmHg 61%
    17:00 +28°C° 0 mm 5 m/s 752 mmHg 67%
    18:00 +27°C° 0 mm 5 m/s 752 mmHg 72%
    19:00 +25°C° 0 mm 5 m/s 753 mmHg 78%
    20:00 +25°C° 0 mm 4 m/s 753 mmHg 78%
    21:00 +25°C° 0 mm 4 m/s 754 mmHg 79%
    22:00 +25°C° 0 mm 3 m/s 754 mmHg 80%
    23:00 +25°C° 0 mm 3 m/s 754 mmHg 81%

    26 Setembro, Quinta-feira

    Tempo Temperatura Precipitação Vento Pressão Humidade
    00:00 +25°C° 0 mm 4 m/s 754 mmHg 82%
    01:00 +23°C° 0 mm 4 m/s 754 mmHg 83%
    02:00 +24°C° 0 mm 3 m/s 754 mmHg 83%
    03:00 +24°C° 0 mm 3 m/s 754 mmHg 82%
    04:00 +24°C° 0 mm 2 m/s 754 mmHg 82%
    05:00 +24°C° 0 mm 2 m/s 754 mmHg 81%
    06:00 +24°C° 0 mm 2 m/s 755 mmHg 80%
    07:00 +25°C° 0 mm 1 m/s 755 mmHg 79%
    08:00 +26°C° 0 mm 1 m/s 755 mmHg 72%
    09:00 +27°C° 0 mm 1 m/s 755 mmHg 66%
    10:00 +28°C° 0 mm 1 m/s 755 mmHg 60%
    11:00 +29°C° 0 mm 2 m/s 754 mmHg 57%
    12:00 +30°C° 0 mm 3 m/s 753 mmHg 54%
    13:00 +31°C° 0 mm 3 m/s 753 mmHg 51%
    14:00 +30°C° 0 mm 4 m/s 752 mmHg 54%
    15:00 +30°C° 0 mm 5 m/s 752 mmHg 57%
    16:00 +29°C° 0 mm 5 m/s 752 mmHg 60%
    17:00 +28°C° 0 mm 5 m/s 752 mmHg 65%
    18:00 +27°C° 0 mm 5 m/s 753 mmHg 71%
    19:00 +26°C° 0 mm 5 m/s 753 mmHg 76%
    20:00 +26°C° 0 mm 4 m/s 754 mmHg 77%
    21:00 +26°C° 0 mm 4 m/s 754 mmHg 78%
    22:00 +26°C° 0 mm 4 m/s 755 mmHg 79%
    23:00 +26°C° 0 mm 3 m/s 755 mmHg 79%

    27 Setembro, Sexta-feira

    Tempo Temperatura Precipitação Vento Pressão Humidade
    00:00 +26°C° 0 mm 2 m/s 755 mmHg 79%
    01:00 +26°C° 0 mm 1 m/s 755 mmHg 79%
    02:00 +25°C° 0 mm 2 m/s 755 mmHg 79%
    03:00 +25°C° 0 mm 2 m/s 755 mmHg 80%
    04:00 +25°C° 0 mm 3 m/s 755 mmHg 81%
    05:00 +25°C° 0 mm 2 m/s 755 mmHg 81%
    06:00 +25°C° 0 mm 2 m/s 756 mmHg 80%
    07:00 +25°C° 0 mm 2 m/s 756 mmHg 80%
    08:00 +26°C° 0 mm 2 m/s 756 mmHg 76%
    09:00 +27°C° 0 mm 1 m/s 756 mmHg 71%
    10:00 +28°C° 0 mm 1 m/s 756 mmHg 66%
    11:00 +29°C° 0 mm 2 m/s 755 mmHg 60%
    12:00 +31°C° 0 mm 3 m/s 754 mmHg 55%
    13:00 +33°C° 0 mm 4 m/s 754 mmHg 49%
    14:00 +32°C° 0 mm 4 m/s 753 mmHg 52%
    15:00 +30°C° 0 mm 5 m/s 753 mmHg 55%
    16:00 +30°C° 0 mm 5 m/s 752 mmHg 58%
    17:00 +28°C° 0 mm 5 m/s 752 mmHg 65%
    18:00 +27°C° 0 mm 5 m/s 753 mmHg 71%
    19:00 +26°C° 0 mm 5 m/s 753 mmHg 78%
    20:00 +25°C° 0 mm 4 m/s 754 mmHg 79%
    21:00 +25°C° 0 mm 4 m/s 754 mmHg 80%
    22:00 +25°C° 0 mm 3 m/s 755 mmHg 81%
    23:00 +25°C° 0 mm 3 m/s 755 mmHg 81%

    28 Setembro, Sábado

    Tempo Temperatura Precipitação Vento Pressão Humidade
    00:00 +25°C° 0 mm 3 m/s 754 mmHg 81%
    01:00 +25°C° 0 mm 2 m/s 754 mmHg 81%
    02:00 +25°C° 0 mm 2 m/s 754 mmHg 81%
    03:00 +25°C° 0 mm 2 m/s 754 mmHg 81%
    04:00 +24°C° 0 mm 2 m/s 754 mmHg 81%
    05:00 +25°C° 0 mm 2 m/s 755 mmHg 80%
    06:00 +25°C° 0 mm 2 m/s 755 mmHg 79%
    07:00 +25°C° 0 mm 1 m/s 755 mmHg 78%
    08:00 +26°C° 0 mm 1 m/s 755 mmHg 72%
    09:00 +27°C° 0 mm 1 m/s 755 mmHg 67%
    10:00 +26°C° 0 mm 0 m/s 755 mmHg 61%
    11:00 +29°C° 0 mm 2 m/s 754 mmHg 58%
    12:00 +30°C° 0 mm 3 m/s 754 mmHg 55%
    13:00 +32°C° 0 mm 4 m/s 753 mmHg 52%
    14:00 +30°C° 0 mm 4 m/s 752 mmHg 54%
    15:00 +30°C° 0 mm 5 m/s 752 mmHg 57%
    16:00 +29°C° 0 mm 5 m/s 752 mmHg 59%
    17:00 +28°C° 0 mm 5 m/s 752 mmHg 66%
    18:00 +27°C° 0 mm 5 m/s 752 mmHg 72%
    19:00 +25°C° 0 mm 4 m/s 753 mmHg 79%
    20:00 +25°C° 0 mm 4 m/s 753 mmHg 79%
    21:00 +25°C° 0 mm 4 m/s 754 mmHg 80%
    22:00 +25°C° 0 mm 3 m/s 755 mmHg 81%
    23:00 +25°C° 0 mm 3 m/s 755 mmHg 80%
    Mostrar mais